THOR ABLESTAR DEB, 159

Orbit data source: Space-Track

THOR ABLESTAR DEB, 159 is space debris in LEO originally from a launch on Thu, 29 Jun 1961 UTC launched from the Air Force Eastern Test Range (AFETR). Debris objects in space refer to the collection of defunct objects orbiting the Earth. Examples of debris include non-operational satellites, rocket bodies, and fragments generated from explosions, collisions, or faulty payload assembly.

Loading next visibility...
Identifier
159, 1961-015AV
Orbit
LEO
Country
Flag of USUS
Related business
Manufacturer
Unknown
Mission
Spacecraft
Bus & Motor
Unknown
Mass
Unknown
Launch date (UTC)
1961-06-29 (64 years ago)
Launch vehicle
Unknown
Launch site
Air Force Eastern Test Range (AFETR)
Object type
Payload
Rocket body
Debris
Shape & HBR
Unknown shape, 0.2 m
Radar Cross Section
Medium (>0.1 m² and <1 m²)

Expand to show TLE details & history
Last TLE update: 18 hours ago

TLE from 18 hours ago
0 THOR ABLESTAR DEB
1 00159U 61015AV  25308.46137528  .00000247  00000-0  71829-3 0  9995
2 00159  65.5282  11.4743 0376985 245.0304 111.1120 13.02963782 51577
Epoch: 2025-11-04T11:04Z
TLE epoch observation values (Epoch: 2025-11-04T11:04:22.824Z)
Latitude
-0.00003°
Longitude
161.43112°
Altitude
1,365.227 km
Speed
7.123 km/s
True Right ascension
00h 45m 53s
True Declination
0° 00' 00"
Sunlit
Object was in full shadow at epoch
Visualization orbit readout
Latitude
Unknown
Longitude
Unknown
Altitude
Unknown
Speed
Unknown
Apparent Right ascension
Unknown
Apparent Declination
Unknown
Sunlit
N/A
Visualization observer readout
Local Sidereal Time
00:44:10
Azimuth
Unknown
Elevation
Unknown
Doppler factor
Unknown
Orbital elements
Apogee altitude
1,536.637 km
Perigee altitude
961.566 km
Semi-major axis
7,627.238 km
Eccentricity
0.0377
Inclination
65.5282°
RAAN
11.4743°
Arg. of periapsis
245.0304°
True anomaly
115.07152°
Mean anomaly
111.112°
Eccentric anomaly
113.0988°
Mean motion
3.25831 °/min
Orbital period
110.49 mins
BSTAR
0.00071829
Loading maneuver chart data...
Computing Atmospheric mass density...

Documentation

Showing up to 5 results
|